Time,TemperatureF,DewpointF,PressureIn,WindDirection,WindDirectionDegrees,WindSpeedMPH,WindSpeedGustMPH,Humidity,HourlyPrecipIn,Conditions,Clouds,dailyrainin,SoftwareType,DateUTC
2013-08-16 00:00:00,64.0,54.0,-100.00,West,263,3.0,9.0,68,-99.99,,,-99.99,,2013-08-16 04:00:00,
2013-08-16 00:43:00,64.0,54.0,-100.00,West,263,3.0,9.0,68,-99.99,,,-99.99,,2013-08-16 04:43:00,
2013-08-16 00:54:00,64.0,54.0,-100.00,West,263,3.0,9.0,68,-99.99,,,-99.99,,2013-08-16 04:54:00,
2013-08-16 01:44:00,64.0,54.0,-100.00,SW,235,3.0,5.0,70,-99.99,,,-99.99,,2013-08-16 05:44:00,
2013-08-16 03:00:00,60.0,55.0,-100.00,NW,315,0.0,4.0,84,-99.99,,,-99.99,,2013-08-16 07:00:00,
2013-08-16 03:42:00,60.0,55.0,-100.00,NW,315,0.0,4.0,84,-99.99,,,-99.99,,2013-08-16 07:42:00,
2013-08-16 03:52:00,60.0,55.0,-100.00,NW,315,0.0,4.0,84,-99.99,,,-99.99,,2013-08-16 07:52:00,
2013-08-16 04:00:00,59.0,54.0,-100.00,SW,234,2.0,4.0,84,-99.99,,,-99.99,,2013-08-16 08:00:00,
2013-08-16 04:42:00,59.0,54.0,-100.00,SW,234,2.0,4.0,84,-99.99,,,-99.99,,2013-08-16 08:42:00,
2013-08-16 04:52:00,59.0,54.0,-100.00,SW,234,2.0,4.0,84,-99.99,,,-99.99,,2013-08-16 08:52:00,
2013-08-16 05:00:00,58.0,54.0,-100.00,WNW,285,2.0,5.0,85,-99.99,,,-99.99,,2013-08-16 09:00:00,
2013-08-16 05:42:00,58.0,54.0,-100.00,WNW,285,2.0,5.0,85,-99.99,,,-99.99,,2013-08-16 09:42:00,
2013-08-16 05:53:00,58.0,54.0,-100.00,WNW,285,2.0,5.0,85,-99.99,,,-99.99,,2013-08-16 09:53:00,
2013-08-16 06:00:00,57.0,53.0,-100.00,NW,306,2.0,5.0,86,-99.99,,,-99.99,,2013-08-16 10:00:00,
2013-08-16 06:42:00,57.0,53.0,-100.00,NW,306,2.0,5.0,86,-99.99,,,-99.99,,2013-08-16 10:42:00,
2013-08-16 06:53:00,57.0,53.0,-100.00,NW,306,2.0,5.0,86,-99.99,,,-99.99,,2013-08-16 10:53:00,
2013-08-16 07:00:00,58.0,55.0,-100.00,WNW,301,0.0,3.0,88,-99.99,,,-99.99,,2013-08-16 11:00:00,
2013-08-16 07:42:00,58.0,55.0,-100.00,WNW,301,0.0,3.0,88,-99.99,,,-99.99,,2013-08-16 11:42:00,
2013-08-16 07:52:00,58.0,55.0,-100.00,WNW,301,0.0,3.0,88,-99.99,,,-99.99,,2013-08-16 11:52:00,
2013-08-16 08:00:00,64.0,57.0,-100.00,NW,308,2.0,5.0,76,-99.99,,,-99.99,,2013-08-16 12:00:00,
2013-08-16 08:42:00,64.0,57.0,-100.00,NW,308,2.0,5.0,76,-99.99,,,-99.99,,2013-08-16 12:42:00,
2013-08-16 08:52:00,64.0,57.0,-100.00,NW,308,2.0,5.0,76,-99.99,,,-99.99,,2013-08-16 12:52:00,
2013-08-16 09:00:00,70.0,55.0,-100.00,WNW,298,3.0,7.0,60,-99.99,,,-99.99,,2013-08-16 13:00:00,
2013-08-16 09:42:00,70.0,55.0,-100.00,WNW,298,3.0,7.0,60,-99.99,,,-99.99,,2013-08-16 13:42:00,
2013-08-16 09:53:00,70.0,55.0,-100.00,WNW,298,3.0,7.0,60,-99.99,,,-99.99,,2013-08-16 13:53:00,
2013-08-16 10:00:00,74.0,54.0,-100.00,NW,309,4.0,9.0,51,-99.99,,,-99.99,,2013-08-16 14:00:00,
2013-08-16 10:42:00,74.0,54.0,-100.00,NW,309,4.0,9.0,51,-99.99,,,-99.99,,2013-08-16 14:42:00,
2013-08-16 10:52:00,74.0,54.0,-100.00,NW,309,4.0,9.0,51,-99.99,,,-99.99,,2013-08-16 14:52:00,
2013-08-16 11:00:00,76.0,51.0,-100.00,North,7,0.0,8.0,41,-99.99,,,-99.99,,2013-08-16 15:00:00,
2013-08-16 11:43:00,76.0,51.0,-100.00,North,7,0.0,8.0,41,-99.99,,,-99.99,,2013-08-16 15:43:00,
2013-08-16 11:56:00,76.0,51.0,-100.00,North,7,0.0,8.0,41,-99.99,,,-99.99,,2013-08-16 15:56:00,
2013-08-16 12:00:00,73.0,57.0,-100.00,ESE,122,6.0,10.0,58,-99.99,,,-99.99,,2013-08-16 16:00:00,
2013-08-16 12:44:00,73.0,57.0,-100.00,ESE,122,6.0,10.0,58,-99.99,,,-99.99,,2013-08-16 16:44:00,
2013-08-16 12:57:00,73.0,57.0,-100.00,ESE,122,6.0,10.0,58,-99.99,,,-99.99,,2013-08-16 16:57:00,
2013-08-16 13:00:00,75.0,55.0,-100.00,SSE,151,5.0,10.0,51,0.00,,,-99.99,,2013-08-16 17:00:00,
2013-08-16 13:47:00,75.0,55.0,-100.00,SSE,151,5.0,10.0,51,0.00,,,-99.99,,2013-08-16 17:47:00,
2013-08-16 14:00:00,74.0,57.0,-100.00,South,176,7.0,11.0,55,0.00,,,-99.99,,2013-08-16 18:00:00,
2013-08-16 14:50:00,-999.0,-99.9,-100.00,South,176,7.0,11.0,55,0.00,,,-99.99,,2013-08-16 18:50:00,
2013-08-16 15:00:00,75.0,58.0,-100.00,SSE,151,5.0,12.0,55,0.00,,,-99.99,,2013-08-16 19:00:00,
2013-08-16 15:46:00,75.0,58.0,-100.00,SSE,151,5.0,12.0,55,0.00,,,-99.99,,2013-08-16 19:46:00,
2013-08-16 15:55:00,75.0,58.0,-100.00,SSE,151,5.0,12.0,55,0.00,,,-99.99,,2013-08-16 19:55:00,
2013-08-16 16:00:00,76.0,50.0,-100.00,SSE,157,8.0,11.0,41,0.00,,,-99.99,,2013-08-16 20:00:00,
2013-08-16 16:44:00,76.0,50.0,-100.00,SSE,157,8.0,11.0,41,0.00,,,-99.99,,2013-08-16 20:44:00,
2013-08-16 16:52:00,76.0,50.0,-100.00,SSE,157,8.0,11.0,41,0.00,,,-99.99,,2013-08-16 20:52:00,
2013-08-16 17:00:00,75.0,52.0,-100.00,South,183,5.0,11.0,44,0.00,,,-99.99,,2013-08-16 21:00:00,
2013-08-16 17:40:00,-999.0,-99.9,-100.00,South,183,5.0,11.0,-999,0.00,,,-99.99,,2013-08-16 21:40:00,
2013-08-16 17:54:00,75.0,52.0,-100.00,South,183,5.0,11.0,44,0.00,,,-99.99,,2013-08-16 21:54:00,
2013-08-16 18:00:00,74.0,53.0,-100.00,SSW,210,5.0,11.0,49,0.00,,,-99.99,,2013-08-16 22:00:00,
2013-08-16 18:43:00,74.0,53.0,-100.00,SSW,210,5.0,11.0,49,0.00,,,-99.99,,2013-08-16 22:43:00,
2013-08-16 18:52:00,74.0,53.0,-100.00,SSW,210,5.0,11.0,49,0.00,,,-99.99,,2013-08-16 22:52:00,
2013-08-16 19:00:00,73.0,54.0,-100.00,South,182,7.0,11.0,53,0.00,,,-99.99,,2013-08-16 23:00:00,
2013-08-16 19:42:00,73.0,54.0,-100.00,South,182,7.0,11.0,53,0.00,,,-99.99,,2013-08-16 23:42:00,
2013-08-16 19:52:00,73.0,54.0,-100.00,South,182,7.0,11.0,53,0.00,,,-99.99,,2013-08-16 23:52:00,
2013-08-16 20:00:00,70.0,54.0,-100.00,SSW,197,3.0,8.0,56,0.00,,,-99.99,,2013-08-17 00:00:00,
2013-08-16 20:42:00,70.0,54.0,-100.00,SSW,197,3.0,8.0,56,0.00,,,-99.99,,2013-08-17 00:42:00,
2013-08-16 20:52:00,70.0,54.0,-100.00,SSW,197,3.0,8.0,56,0.00,,,-99.99,,2013-08-17 00:52:00,
2013-08-16 21:00:00,68.0,55.0,-100.00,SSW,196,0.0,5.0,64,0.00,,,-99.99,,2013-08-17 01:00:00,
2013-08-16 21:42:00,68.0,55.0,-100.00,SSW,196,0.0,5.0,64,0.00,,,-99.99,,2013-08-17 01:42:00,
2013-08-16 21:52:00,68.0,55.0,-100.00,SSW,196,0.0,5.0,64,0.00,,,-99.99,,2013-08-17 01:52:00,
2013-08-16 22:00:00,65.0,57.0,-100.00,North,2,0.0,2.0,74,0.00,,,-99.99,,2013-08-17 02:00:00,
2013-08-16 22:42:00,65.0,57.0,-100.00,North,2,0.0,2.0,74,0.00,,,-99.99,,2013-08-17 02:42:00,
2013-08-16 22:52:00,65.0,57.0,-100.00,North,2,0.0,2.0,74,0.00,,,-99.99,,2013-08-17 02:52:00,
2013-08-16 23:00:00,63.0,57.0,-100.00,NW,323,0.0,2.0,78,0.00,,,-99.99,,2013-08-17 03:00:00,
2013-08-16 23:43:00,63.0,57.0,-100.00,NW,323,0.0,2.0,78,0.00,,,-99.99,,2013-08-17 03:43:00,
2013-08-16 23:53:00,63.0,57.0,-100.00,NW,323,0.0,2.0,78,0.00,,,-99.99,,2013-08-17 03:53:00,